Location: Eschertshofen
(49.3064°N, 11.5756°E)
Time: 20:11:47
(UTC+00:00)

Spot 2 Rocket - Pass Details

Date: 24 June 2021
Orbit: 757 x 772 km, 98.5° (Epoch: 28 July)

Event Time Altitude Azimuth Distance (km) Brightness Sun altitude
Exits shadow 21:19:21 - 198° (SSW) 2,544 5.8 -12.8°
Reaches altitude 10° 21:20:04 10° 202° (SSW) 2,296 5.6 -12.8°
Maximum altitude 21:24:33 32° 265° (W) 1,308 4.9 -13.2°
Drops below altitude 10° 21:29:06 10° 328° (NNW) 2,320 7.4 -13.5°
Sets 21:31:40 0° 338° (NNW) 3,253 8.8 -13.7°
